This is the latest recevied weather packets stored in our database for station/object WD8INF-9. If no packets are shown the sender has not sent any weather packets the latest 10 day(s).
| Time | Temp. | Humidity | Pressure | Rain* | Wind** | Luminosity | Snow |
|---|---|---|---|---|---|---|---|
| 1777488637 | 16.11° C | - | 1008.4 hPa | 0 mm | - | - | - |
| 1777488337 | 18.89° C | - | 1008.4 hPa | 0 mm | - | - | - |
| 1777488036 | 17.78° C | - | 1008.5 hPa | 0 mm | - | - | - |
| 1777487736 | 17.78° C | - | 1008.5 hPa | 0 mm | - | - | - |
| 1777487436 | 17.22° C | - | 1008.4 hPa | 0 mm | - | - | - |
| 1777487136 | 16.11° C | - | 1008.6 hPa | 0 mm | - | - | - |
| 1777486835 | 17.22° C | - | 1008.3 hPa | 0 mm | - | - | - |
| 1777486535 | 17.22° C | - | 1008.3 hPa | 0 mm | - | - | - |
| 1777486235 | 15.56° C | - | 1008.1 hPa | 0 mm | - | - | - |
| 1777485935 | 14.44° C | - | 1008.5 hPa | 0 mm | - | - | - |
| 1777485634 | 15° C | - | 1008.4 hPa | 0 mm | - | - | - |
| 1777485334 | 15.56° C | - | 1008.6 hPa | 0 mm | - | - | - |
| 1777485034 | 14.44° C | - | 1008.5 hPa | 0 mm | - | - | - |
| 1777484734 | 15° C | - | 1008.4 hPa | 0 mm | - | - | - |
| 1777484433 | 15° C | - | 1008.3 hPa | 0 mm | - | - | - |
| 1777484133 | 15° C | - | 1008.4 hPa | 0 mm | - | - | - |
| 1777483833 | 14.44° C | - | 1008.5 hPa | 0 mm | - | - | - |
| 1777483532 | 15° C | - | 1008.6 hPa | 0 mm | - | - | - |
| 1777483231 | 15° C | - | 1008.4 hPa | 0 mm | - | - | - |
| 1777482931 | 15° C | - | 1008.4 hPa | 0 mm | - | - | - |
| 1777482630 | 15.56° C | - | 1008.6 hPa | 0 mm | - | - | - |
| 1777482330 | 15.56° C | - | 1008.4 hPa | 0 mm | - | - | - |
| 1777482030 | 15° C | - | 1008.7 hPa | 0 mm | - | - | - |
| 1777481730 | 15° C | - | 1008.7 hPa | 0 mm | - | - | - |
| 1777481430 | 14.44° C | - | 1008.8 hPa | 0 mm | - | - | - |
* Rain since midnight (hover to see other rain measurements)
** Current wind speed in m/s (hover to see current wind gust speed)